Regional Weather Roundup
Issued by NWS Grand Forks, ND

Home | Current Version | Previous Version | Graphics & Text | Print | Product List | Glossary On
Versions: 1 2 3 4 5 6 7 8 9 10 11 12 13 14 15 16 17 18 19 20 21 22 23 24 25 26 27 28 29 30 31 32 33 34 35 36 37 38 39 40 41 42 43 44 45 46 47 48 49 50
000
ASUS43 KFGF 010910
RWRFGF
PRAIRIE TO PINES  WEATHER ROUNDUP
NATIONAL WEATHER SERVICE EASTERN NORTH DAKOTA/GRAND FORKS ND
400 AM CDT SAT OCT 01 2016

 **SATELLITE DATA USED TO AUGMENT SKY COVER AT AUTOMATED STATIONS**
 *****  WEATHER ACROSS EASTERN NORTH DAKOTA  *****

CITY           SKY/WX    TMP DP  RH WIND       PRES   REMARKS
GRAND FORKS    CLOUDY    54  48  80 SE8       30.16F
GRAND FRKS AFB CLOUDY    53  49  86 S7        30.15F
GRAND FRKS NWS   N/A     52 N/A N/A S12         N/A
DEVILS LAKE    PTCLDY    56  49  77 SE13      30.12F
FARGO          PTCLDY    55  48  77 SE8       30.16F
WAHPETON ARPT  SUNNY     46  43  87 SE6       30.18F
$$

 ***** WEATHER ACROSS CENTRAL AND WESTERN NORTH DAKOTA  *****

CITY           SKY/WX    TMP DP  RH WIND       PRES   REMARKS
BISMARCK       PTCLDY    58  45  62 S7        30.04F
MINOT          CLOUDY    47  44  90 NW5       30.02F
JAMESTOWN      CLOUDY    55  47  74 S8        30.11F
MINOT AFB      CLOUDY    47  45  92 SE7       30.01F
GARRISON         N/A     55  47  74 VRB3      30.02F
WILLISTON      CLEAR     50  46  86 N5        29.98F
DICKINSON      CLEAR     47  43  86 SE6       29.98F
HETTINGER      CLEAR     45  42  89 CALM      30.01F
$$

 *****  OTHER AIRPORT OBSERVATIONS IN OUR AREA  *****

CITY           SKY/WX    TMP DP  RH WIND       PRES   REMARKS
WALHALLA       FAIR      55  50  82 SE7       30.15F
GRAFTON AIRPOR FAIR      54  52  94 SE6       30.18S
VALLEY CITY AR FAIR      55  48  76 S10       30.16S
CANDO          PTSUNNY   55  52  88 SE10      30.13F
CAVALIER APRT  FAIR      55  50  82 SE7       30.16S
GWINNER        FAIR      48  46  93 E5        30.15F
SHEYENNE NWR     N/A     47  46  95 E2        29.95S
ROLLA            N/A     54  48  82 SE9       30.11F
 ***** THE ABOVE OBSERVATIONS ARE NON NWS ARE NOT QUALITY
       CONTROLLED AND MAY MIS-REPORT RAIN FOR SNOW...
$$

  *****  WEATHER ACROSS NORTHERN MINNESOTA  *****

CITY           SKY/WX    TMP DP  RH WIND       PRES   REMARKS
FLAG ISLAND    CLOUDY    55  52  88 S12       30.22F
WARROAD        MOCLDY    50  46  87 SE5       30.22F
ROSEAU         PTCLDY    48  45  87 CALM      30.21F
HALLOCK        PTCLDY    55  52  88 SE9       30.17S
THF RVR FALLS  MOCLDY    49  46  90 E8        30.20F
BAUDETTE       MOCLDY    46  45  96 SE5       30.24F
WASKISH        PTCLDY    43  43 100 CALM      30.24S
CROOKSTON      CLOUDY    52  48  87 SE8       30.18F
$$
  *****  WEATHER ACROSS CENTRAL AND WEST MINNESOTA  *****

CITY           SKY/WX    TMP DP  RH WIND       PRES   REMARKS
FOSSTON        PTCLDY    46  43  87 SE3       30.21S
BEMIDJI        CLOUDY    48  48  99 SE5       30.23S FOG
PARK RAPIDS    FOG       49  46  90 SE5       30.22F VSB 1/2
ELBOW LAKE     FAIR      51  50  97 SE8       30.19S
WADENA         DRZL/FOG  48  48 100 SE9       30.21F VSB 1/2
DETROIT LAKES  CLEAR     50  46  87 SE5       30.21S
MOORHEAD       PTCLDY    52  48  87 SE5       30.18S
FERGUS FALLS   CLOUDY    54  50  87 E7        30.21S
MORRIS MN      CLEAR     48  46  93 E8        30.17F
STAPLES        CLOUDY    50  50 100 CALM      30.22F FOG
$$
  *****  WEATHER ELSEWHERE ACROSS MINNESOTA  *****

CITY           SKY/WX    TMP DP  RH WIND       PRES   REMARKS
DULUTH         FOG       51  51 100 E8        30.24F VSB 1
INTRNTL FALLS  CLOUDY    40  40 100 CALM      30.26S
ELY            CLEAR     43  43 100 CALM      30.26S
CLOQUET        CLOUDY    52  48  87 E5        30.24S FOG
WHEATON        NOT AVBL
BRAINERD       CLOUDY    52  51  97 CALM      30.23S
HIBBING        CLEAR     37  37 100 NW3       30.25S
ALEXANDRIA     MOCLDY    50  50 100 E9        30.21F FOG
SAINT CLOUD    CLOUDY    52  52 100 E3        30.20F
MINNEAPOLIS    CLEAR     55  51  86 NE3       30.18F
$$

  *****  WEATHER ACROSS SOUTH DAKOTA  *****

CITY           SKY/WX    TMP DP  RH WIND       PRES   REMARKS
SIOUX FALLS    CLEAR     48  46  93 NE3       30.17S
BROOKINGS      CLEAR     49  47  93 CALM      30.16F
WATERTOWN      PTCLDY    51  47  86 CALM      30.16F
HURON          PTCLDY    48  44  86 SE8       30.13F
SISSETON         N/A     44  42  93 SE7       30.16S
ABERDEEN       MOCLDY    52  46  80 S7        30.12F
MITCHELL       PTCLDY    47  43  86 SE6       30.14F
PIERRE         CLOUDY    60  44  55 SE15      30.04F
MOBRIDGE       PTCLDY    61  46  57 S14       30.02F
RAPID CITY     CLEAR     51  47  86 CALM      30.02F
$$

  *****  SOME WEATHER IN NEARBY STATES *****

CITY           SKY/WX    TMP DP  RH WIND       PRES   REMARKS
GLASGOW MT     CLEAR     54  50  86 E10       29.95F
GREAT FALLS MT CLEAR     63  41  44 S12       29.94F
CHEYENNE WY    CLEAR     49  42  77 W8        30.18F
SCOTTSBLUFF NE CLOUDY    50  45  83 E6        30.09F
OMAHA NE       CLOUDY    58  53  84 N3        30.14F
DES MOINES IA  DRIZZLE   60  58  92 N6        30.12S
DAVENPORT IA   CLOUDY    60  58  92 N6        30.06F
CHICAGO IL     MOCLDY    59  56  89 NE5       30.04S
EAU CLAIRE WI  CLEAR     55  51  86 NE5       30.17F
LA CROSSE WI   CLOUDY    62  56  80 N6        30.12F
$$

  *****  SOME NATIONAL WEATHER *****

CITY           SKY/WX    TMP DP  RH WIND       PRES   REMARKS
LA GUARDIA NY  CLOUDY    58  55  90 N12       30.20S
RALEIGH NC     MOCLDY    68  67  96 CALM      30.03S FOG
ATLANTA GA     CLEAR     56  51  84 NW7       30.06R
NEW ORLEANS LA PTCLDY    68  61  78 CALM      30.05S
OKLAHOMA CITY  CLOUDY    61  50  67 CALM      30.10F
ALBUQUERQUE NM PTCLDY    58  54  86 SE7       30.22S
SALT LAKE CITY CLEAR     64  48  56 SE12      30.06S
LOS ANGELES CA CLEAR     67  61  81 W5        29.98S
BOISE ID       MOCLDY    69  47  45 SE6       29.88R
SEATTLE WA     MOCLDY    53  47  79 S3        29.98F
$$

*** WEATHER ACROSS MANITOBA...SASKATCHEWAN AND ONTARIO ***
                ***ONTARIO***

CITY           SKY/WX    TMP DP  RH WIND       PRES   REMARKS
GERALDTON      PTCLDY    39  37  93 CALM      30.32F FOG
THUNDER BAY    CLEAR     41  41 100 NW6       30.28F
SIOUX LOOKOUT  PTCLDY    46  45  93 SE5       30.28S
TORONTO        MOCLDY    55  52  88 E10       30.17F
BIG TROUT LK   MOCLDY    52  48  87 SW6       30.24F
PICKLE LAKE    NOT AVBL
DRYDEN         CLOUDY    50  48  93 S6        30.27S
KENORA         CLEAR     50  48  93 S5        30.24
$$
                *** MANITOBA***

CITY           SKY/WX    TMP DP  RH WIND       PRES   REMARKS
BRANDON        CLOUDY    54  50  87 E6        30.09F
DAUPHIN        CLOUDY    55  54  94 NE5       30.05F
ISLAND LAKE    CLOUDY    54  48  82 SE3       30.18S
PILOT MOUND      N/A     55  48  76 SE13        N/A
THE PAS        CLEAR     48  46  93 E3        30.02S
THOMPSON       CLOUDY    50  48  93 NE5       30.12F
WINNIPEG       MOCLDY    57  52  82 S9        30.17S
LYNN LAKE      CLOUDY    43  43 100 NE14G22   30.16R
CHURCHILL      LGT RAIN  41  39  93 E5        30.36S
GILLAM         FOG       48  48 100 NE8       30.18R VSB 3/8
$$
                ***SASKATCHEWAN***

CITY           SKY/WX    TMP DP  RH WIND       PRES   REMARKS
ESTEVAN        PTCLDY    48  46  93 E8        30.00F
KINDERSLEY     NOT AVBL
LLOYDMINSTER   CLOUDY    46  45  93 NE10      30.11R
PRINCE ALBERT  CLOUDY    52  50  93 NE8       30.06R
REGINA         CLEAR     46  46 100 SE7       30.01S
YORKTON        PTCLDY    52  50  93 SE9       30.04F
N. BATTLEFORD  CLOUDY    50  50 100 NE10      30.07F
LA RONGE       DRIZZLE   50  48  93 N9        30.12S
SASKATOON      CLOUDY    50  50 100 NE16      30.04S FOG
SWIFT CURRENT  CLEAR     52  50  93 E9        29.98F
$$
NOTE: THESE ARE AUTOMATED STATIONS WITH LIMITED QUALITY CONTROL
      "FAIR" INDICATES FEW OR NO CLOUDS BELOW 12,000 FEET WITH NO
      SIGNIFICANT WEATHER AND/OR OBSTRUCTIONS TO VISIBILITY.
      SKY/WX - SKY CONDITION AND SIGNIFICANT WEATHER.
      TMP - AIR TEMPERATURE.    DP   - DEWPOINT TEMPERATURE.
      RH  - RELATIVE HUMIDITY.  PRES - PRESSURE.
      HX  - HEAT INDEX.         WCI  - WIND CHILL INDEX.
$




USA.gov is the U.S. government's official web portal to all federal, state and local government web resources and services.